Location: Newark
(50.0306°N, 2.3272°E)
Time: 05:40:13
(UTC+00:00)

Transit 4A - All Passes

Search period start: 16 December 2019 00:00
Search period end: 26 December 2019 00:00
Orbit: 870 x 974 km, 66.8° (Epoch: 14 December)

Date Brightness Start Highest point End Pass type
(mag) Time Alt. Az. Time Alt. Az. Time Alt. Az.
16 Dec - 00:38:34 10° NW 00:44:16 54° WSW 00:49:53 10° SSE night (unlit)
16 Dec - 14:05:57 10° SE 14:09:47 17° ESE 14:13:34 10° ENE daylight
16 Dec - 15:49:08 10° SSW 15:55:18 82° SE 16:01:20 10° NE daylight
16 Dec - 17:37:01 10° W 17:42:19 30° NW 17:47:31 10° NNE visible
16 Dec - 19:27:04 10° NW 19:30:41 16° N 19:34:16 10° NNE visible
16 Dec - 21:15:12 10° NNW 21:19:26 20° NNE 21:23:37 10° ENE visible
16 Dec - 23:01:28 10° NNW 23:07:13 50° NE 23:12:52 10° ESE night (unlit)
17 Dec - 00:48:06 10° NW 00:53:27 38° WSW 00:58:44 10° S night (unlit)
17 Dec - 14:13:58 10° SSE 14:18:49 25° ESE 14:23:36 10° ENE daylight
17 Dec - 15:58:31 10° SW 16:04:39 75° NW 16:10:41 10° NE daylight
17 Dec - 17:47:05 10° W 17:52:00 25° NNW 17:56:50 10° NNE visible
17 Dec - 19:37:05 10° NW 19:40:34 16° N 19:44:00 10° NE visible
17 Dec - 21:24:36 10° NNW 21:29:12 23° NNE 21:33:44 10° ENE visible
17 Dec - 23:10:47 10° NNW 23:16:40 67° NE 23:22:27 10° SE night (unlit)
18 Dec - 00:57:47 10° NW 01:02:34 27° WSW 01:07:18 10° SSW night (unlit)
18 Dec - 14:22:27 10° S 14:27:56 35° ESE 14:33:19 10° NE daylight
18 Dec - 16:08:04 10° SW 16:14:05 56° NW 16:20:00 10° NNE daylight
18 Dec - 17:57:14 10° WNW 18:01:44 21° NNW 18:06:10 10° NNE visible
18 Dec - 19:46:57 10° NNW 19:50:27 16° N 19:53:55 10° NE visible
18 Dec - 21:33:56 10° NNW 21:38:55 27° NNE 21:43:49 10° E visible
18 Dec - 23:20:08 10° NW 23:26:03 89° NE 23:31:52 10° SE night (unlit)
19 Dec - 01:07:43 10° WNW 01:11:36 19° WSW 01:15:27 10° SSW night (unlit)
19 Dec - 14:31:14 10° S 14:37:07 49° ESE 14:42:52 10° NE daylight
19 Dec - 16:17:48 10° WSW 16:23:35 43° NW 16:29:17 10° NNE visible
19 Dec - 18:07:26 10° WNW 18:11:32 18° NNW 18:15:35 10° NNE visible
19 Dec - 19:56:38 10° NNW 20:00:18 16° N 20:03:57 10° NE visible
19 Dec - 21:43:14 10° NNW 21:48:33 33° NE 21:53:47 10° E visible
19 Dec - 23:29:31 10° NW 23:35:21 67° WSW 23:41:06 10° SSE night (unlit)
20 Dec - 01:18:21 10° WNW 01:20:34 12° W 01:22:47 10° SW night (unlit)
20 Dec - 12:58:16 10° SE 13:01:03 13° ESE 13:03:48 10° ENE daylight
20 Dec - 14:40:16 10° SSW 14:46:21 68° ESE 14:52:19 10° NE daylight
20 Dec - 16:27:39 10° WSW 16:33:10 34° NW 16:38:34 10° NNE visible
20 Dec - 18:17:37 10° NW 18:21:22 17° NNW 18:25:05 10° NNE visible
20 Dec - 20:06:10 10° NNW 20:10:10 18° NNE 20:14:06 10° ENE visible
20 Dec - 21:52:32 10° NNW 21:58:07 42° NE 22:03:38 10° ESE visible
20 Dec - 23:39:00 10° NW 23:44:35 47° WSW 23:50:06 10° S night (unlit)
21 Dec - 13:05:48 10° SSE 13:10:03 20° ESE 13:14:13 10° ENE daylight
21 Dec - 14:49:30 10° SW 14:55:40 89° NW 15:01:42 10° NE daylight
21 Dec - 16:37:40 10° W 16:42:48 28° NNW 16:47:52 10° NNE visible
21 Dec - 18:27:43 10° NW 18:31:15 16° N 18:34:44 10° NNE visible
21 Dec - 20:15:37 10° NNW 20:19:58 21° NNE 20:24:15 10° ENE visible
21 Dec - 22:01:51 10° NNW 22:07:37 55° NE 22:13:19 10° SE visible
21 Dec - 23:48:34 10° NW 23:53:44 33° WSW 23:58:51 10° S night (unlit)
22 Dec - 13:14:00 10° SSE 13:19:06 28° ESE 13:24:06 10° NE daylight
22 Dec - 14:58:57 10° SW 15:05:03 68° NW 15:11:02 10° NNE daylight
22 Dec - 16:47:46 10° WNW 16:52:30 23° NNW 16:57:10 10° NNE visible
22 Dec - 18:37:41 10° NW 18:41:07 15° N 18:44:32 10° NE visible
22 Dec - 20:24:58 10° NNW 20:29:42 24° NNE 20:34:22 10° E visible
22 Dec - 22:11:09 10° NW 22:17:03 74° NE 22:22:51 10° SE visible
22 Dec - 23:58:19 10° WNW 00:02:49 23° WSW 00:07:17 10° SSW night (unlit)
23 Dec - 13:22:36 10° S 13:28:14 39° ESE 13:33:46 10° NE daylight
23 Dec - 15:08:34 10° WSW 15:14:31 51° NW 15:20:20 10° NNE daylight
23 Dec - 16:57:56 10° WNW 17:02:16 20° NNW 17:06:32 10° NNE visible
23 Dec - 18:47:28 10° NNW 18:51:00 16° N 18:54:30 10° NE visible
23 Dec - 20:34:17 10° NNW 20:39:23 29° NNE 20:44:25 10° E visible
23 Dec - 22:20:31 10° NW 22:26:23 82° WSW 22:32:12 10° SSE night (unlit)
24 Dec - 00:08:26 10° WNW 00:11:50 16° WSW 00:15:14 10° SW night (unlit)
24 Dec - 13:31:29 10° SSW 13:37:26 55° ESE 13:43:16 10° NE daylight
24 Dec - 15:18:21 10° WSW 15:24:02 39° NW 15:29:37 10° NNE daylight
24 Dec - 17:08:08 10° WNW 17:12:05 18° NNW 17:15:59 10° NNE visible
24 Dec - 18:57:06 10° NNW 19:00:52 17° NNE 19:04:35 10° NE visible
24 Dec - 20:43:35 10° NNW 20:49:00 36° NE 20:54:21 10° ESE visible
24 Dec - 22:29:56 10° NW 22:35:40 59° WSW 22:41:21 10° SSE night (unlit)
25 Dec - 00:19:56 10° W 00:20:46 10° W 00:21:37 10° WSW night (unlit)
25 Dec - 11:57:53 10° SE 12:01:17 15° ESE 12:04:38 10° ENE daylight
25 Dec - 13:40:36 10° SSW 13:46:43 76° ESE 13:52:41 10° NE daylight
25 Dec - 15:28:16 10° W 15:33:38 31° NW 15:38:54 10° NNE daylight
25 Dec - 17:18:17 10° NW 17:21:56 16° N 17:25:31 10° NNE visible
25 Dec - 19:06:36 10° NNW 19:10:41 19° NNE 19:14:45 10° ENE visible
25 Dec - 20:52:53 10° NNW 20:58:33 46° NE 21:04:08 10° ESE visible
25 Dec - 22:39:25 10° NW 22:44:52 42° WSW 22:50:17 10° S night (unlit)
